| time (UTC) | temp F | wind direction | speed MPH | gust MPH | rain 1hr in | rain 24hr in | rain mn in | humidity % | barometer mb |
| 20260905024519 | 63 | 23 | 2.0 | 3.0 | 0.00 | 0.00 | 0.00 | 49 | 1012.6 |
| 20260905023520 | 64 | 0.0 | 2.0 | 0.00 | 0.00 | 0.00 | 50 | 1012.6 | |
| 20260905022519 | 65 | 23 | 2.0 | 3.0 | 0.00 | 0.00 | 0.00 | 50 | 1012.6 |
| 20260905021539 | 66 | 0.0 | 0.0 | 0.00 | 0.00 | 0.00 | 48 | 1012.4 | |
| 20260905020519 | 67 | 0.0 | 1.0 | 0.00 | 0.00 | 0.00 | 47 | 1012.6 | |
| 20260905015519 | 68 | 0.0 | 0.0 | 0.00 | 0.00 | 0.00 | 42 | 1012.5 | |
| 20260905014519 | 70 | 0.0 | 0.0 | 0.00 | 0.00 | 0.00 | 43 | 1012.4 | |
| 20260905013519 | 71 | 0.0 | 1.0 | 0.00 | 0.00 | 0.00 | 43 | 1012.5 | |
| 20260905012519 | 72 | 0.0 | 1.0 | 0.00 | 0.00 | 0.00 | 37 | 1012.4 | |
| 20260905011519 | 74 | 0.0 | 0.0 | 0.00 | 0.00 | 0.00 | 34 | 1012.5 | |
| 20260905010519 | 74 | 0.0 | 2.0 | 0.00 | 0.00 | 0.00 | 27 | 1012.4 | |
| 20260905005519 | 74 | 90 | 1.0 | 4.0 | 0.00 | 0.00 | 0.00 | 25 | 1012.3 |
| 20260905004519 | 73 | 90 | 2.0 | 6.0 | 0.00 | 0.00 | 0.00 | 27 | 1012.3 |
| 20260905003519 | 73 | 90 | 4.0 | 6.0 | 0.00 | 0.00 | 0.00 | 27 | 1012.1 |
| 20260905002538 | 73 | 90 | 2.0 | 6.0 | 0.00 | 0.00 | 0.00 | 28 | 1012.2 |
| 20260905001518 | 73 | 90 | 3.0 | 8.0 | 0.00 | 0.00 | 0.00 | 29 | 1012.3 |
| 20260905000518 | 73 | 90 | 4.0 | 7.0 | 0.00 | 0.00 | 0.00 | 28 | 1012.3 |
| 20260904235539 | 72 | 90 | 2.0 | 8.0 | 0.00 | 0.00 | 0.00 | 29 | 1012.2 |
| 20260904234519 | 72 | 113 | 2.0 | 4.0 | 0.00 | 0.00 | 0.00 | 32 | 1012.3 |
| 20260904233518 | 72 | 90 | 3.0 | 6.0 | 0.00 | 0.00 | 0.00 | 32 | 1012.3 |
| 20260904232518 | 72 | 90 | 4.0 | 8.0 | 0.00 | 0.00 | 0.00 | 31 | 1012.4 |
| 20260904231519 | 72 | 135 | 2.0 | 6.0 | 0.00 | 0.00 | 0.00 | 35 | 1012.4 |
| 20260904230519 | 73 | 113 | 3.0 | 8.0 | 0.00 | 0.00 | 0.00 | 30 | 1012.5 |
| 20260904225518 | 73 | 90 | 3.0 | 8.0 | 0.00 | 0.00 | 0.00 | 28 | 1012.5 |
| 20260904224518 | 73 | 113 | 1.0 | 9.0 | 0.00 | 0.00 | 0.00 | 29 | 1012.5 |
| 20260904223538 | 73 | 113 | 2.0 | 7.0 | 0.00 | 0.00 | 0.00 | 27 | 1012.5 |
| 20260904222519 | 73 | 113 | 2.0 | 7.0 | 0.00 | 0.00 | 0.00 | 33 | 1012.4 |
| 20260904221519 | 73 | 90 | 4.0 | 9.0 | 0.00 | 0.00 | 0.00 | 31 | 1012.5 |
| 20260904220519 | 72 | 90 | 3.0 | 11.0 | 0.00 | 0.00 | 0.00 | 32 | 1012.5 |
| 20260904215539 | 71 | 90 | 3.0 | 8.0 | 0.00 | 0.00 | 0.00 | 36 | 1012.6 |
| 20260904214541 | 71 | 135 | 2.0 | 4.0 | 0.00 | 0.00 | 0.00 | 33 | 1012.7 |
| 20260904213519 | 72 | 90 | 4.0 | 9.0 | 0.00 | 0.00 | 0.00 | 35 | 1012.6 |
| 20260904212519 | 72 | 90 | 4.0 | 10.0 | 0.00 | 0.00 | 0.00 | 32 | 1012.5 |
| 20260904211518 | 71 | 90 | 1.0 | 7.0 | 0.00 | 0.00 | 0.00 | 36 | 1012.6 |
| 20260904210518 | 71 | 90 | 5.0 | 9.0 | 0.00 | 0.00 | 0.00 | 34 | 1012.5 |
| 20260904205518 | 71 | 90 | 3.0 | 9.0 | 0.00 | 0.00 | 0.00 | 36 | 1012.6 |
| 20260904204520 | 71 | 135 | 2.0 | 5.0 | 0.00 | 0.00 | 0.00 | 35 | 1012.6 |
| 20260904203518 | 70 | 135 | 1.0 | 3.0 | 0.00 | 0.00 | 0.00 | 35 | 1012.5 |
| 20260904202518 | 70 | 90 | 3.0 | 8.0 | 0.00 | 0.00 | 0.00 | 35 | 1012.6 |
| 20260904201518 | 70 | 90 | 3.0 | 8.0 | 0.00 | 0.00 | 0.00 | 36 | 1012.7 |
| 20260904200519 | 70 | 90 | 1.0 | 8.0 | 0.00 | 0.00 | 0.00 | 41 | 1012.8 |
| 20260904195520 | 69 | 90 | 2.0 | 7.0 | 0.00 | 0.00 | 0.00 | 40 | 1012.8 |
| 20260904194538 | 69 | 90 | 2.0 | 7.0 | 0.00 | 0.00 | 0.00 | 41 | 1012.8 |
| 20260904193518 | 68 | 90 | 2.0 | 6.0 | 0.00 | 0.00 | 0.00 | 41 | 1012.8 |
| 20260904192520 | 68 | 158 | 1.0 | 4.0 | 0.00 | 0.00 | 0.00 | 41 | 1012.9 |
| 20260904191520 | 67 | 158 | 2.0 | 6.0 | 0.00 | 0.00 | 0.00 | 41 | 1013.0 |
| 20260904190520 | 66 | 158 | 2.0 | 7.0 | 0.00 | 0.00 | 0.00 | 44 | 1013.1 |
| 20260904185519 | 66 | 135 | 3.0 | 6.0 | 0.00 | 0.00 | 0.00 | 44 | 1013.1 |
| 20260904184521 | 65 | 180 | 1.0 | 2.0 | 0.00 | 0.00 | 0.00 | 44 | 1013.2 |
| 20260904183521 | 66 | 135 | 2.0 | 4.0 | 0.00 | 0.00 | 0.00 | 45 | 1013.2 |
| 20260904182520 | 66 | 113 | 1.0 | 4.0 | 0.00 | 0.00 | 0.00 | 45 | 1013.2 |
| 20260904181520 | 65 | 113 | 1.0 | 5.0 | 0.00 | 0.00 | 0.00 | 46 | 1013.0 |
| 20260904180520 | 64 | 90 | 1.0 | 6.0 | 0.00 | 0.00 | 0.00 | 48 | 1013.0 |
| 20260904175540 | 63 | 180 | 1.0 | 4.0 | 0.00 | 0.00 | 0.00 | 48 | 1012.8 |
| 20260904174520 | 62 | 0.0 | 3.0 | 0.00 | 0.00 | 0.00 | 52 | 1012.8 | |
| 20260904173520 | 62 | 203 | 1.0 | 3.0 | 0.00 | 0.00 | 0.00 | 52 | 1012.9 |
| 20260904172520 | 61 | 225 | 2.0 | 5.0 | 0.00 | 0.00 | 0.00 | 54 | 1012.8 |
| 20260904171520 | 60 | 225 | 1.0 | 3.0 | 0.00 | 0.00 | 0.00 | 57 | 1012.7 |
| 20260904170521 | 60 | 225 | 3.0 | 6.0 | 0.00 | 0.00 | 0.00 | 56 | 1012.7 |
| 20260904165520 | 60 | 158 | 1.0 | 3.0 | 0.00 | 0.00 | 0.00 | 55 | 1012.6 |
| 20260904164540 | 59 | 248 | 1.0 | 3.0 | 0.00 | 0.00 | 0.00 | 57 | 1012.7 |
| 20260904163520 | 59 | 90 | 1.0 | 3.0 | 0.00 | 0.00 | 0.00 | 59 | 1012.5 |
| 20260904162540 | 58 | 90 | 1.0 | 4.0 | 0.00 | 0.01 | 0.00 | 58 | 1012.5 |
| 20260904161540 | 58 | 0.0 | 4.0 | 0.00 | 0.01 | 0.00 | 58 | 1012.5 | |
| 20260904160540 | 57 | 0.0 | 0.0 | 0.00 | 0.01 | 0.00 | 58 | 1012.5 | |
| 20260904155520 | 55 | 0.0 | 0.0 | 0.00 | 0.01 | 0.00 | 59 | 1012.5 | |
| 20260904154540 | 54 | 0.0 | 0.0 | 0.00 | 0.01 | 0.00 | 59 | 1012.4 | |
| 20260904153539 | 54 | 0.0 | 0.0 | 0.00 | 0.01 | 0.00 | 60 | 1012.5 | |
| 20260904152520 | 54 | 0.0 | 0.0 | 0.00 | 0.01 | 0.00 | 60 | 1012.3 | |
| 20260904151520 | 53 | 0.0 | 0.0 | 0.00 | 0.01 | 0.00 | 60 | 1012.2 | |
| 20260904150519 | 53 | 0.0 | 0.0 | 0.00 | 0.01 | 0.00 | 60 | 1012.0 | |
| 20260904145540 | 53 | 0.0 | 0.0 | 0.00 | 0.01 | 0.00 | 61 | 1012.0 | |
| 20260904144520 | 52 | 0.0 | 0.0 | 0.00 | 0.01 | 0.00 | 61 | 1012.0 | |
| 20260904143518 | 52 | 0.0 | 0.0 | 0.00 | 0.01 | 0.00 | 63 | 1011.7 | |
| 20260904142519 | 50 | 0.0 | 0.0 | 0.00 | 0.01 | 0.00 | 66 | 1011.4 | |
| 20260904141520 | 49 | 0.0 | 0.0 | 0.00 | 0.01 | 0.00 | 66 | 1011.2 | |
| 20260904140519 | 49 | 0.0 | 0.0 | 0.00 | 0.01 | 0.00 | 66 | 1011.1 | |
| 20260904135520 | 49 | 0.0 | 0.0 | 0.00 | 0.01 | 0.00 | 66 | 1010.9 | |
| 20260904134540 | 48 | 0.0 | 0.0 | 0.00 | 0.01 | 0.00 | 66 | 1010.9 | |
| 20260904133520 | 48 | 0.0 | 0.0 | 0.00 | 0.01 | 0.00 | 66 | 1010.8 | |
| 20260904132519 | 48 | 0.0 | 0.0 | 0.00 | 0.01 | 0.00 | 66 | 1010.6 | |
| 20260904131519 | 48 | 0.0 | 0.0 | 0.00 | 0.01 | 0.00 | 66 | 1010.5 | |
| 20260904130539 | 48 | 0.0 | 0.0 | 0.00 | 0.01 | 0.00 | 66 | 1010.6 | |
| 20260904125559 | 47 | 0.0 | 0.0 | 0.00 | 0.01 | 0.00 | 66 | 1010.4 | |
| 20260904124520 | 48 | 0.0 | 0.0 | 0.00 | 0.01 | 0.00 | 66 | 1010.4 | |
| 20260904123520 | 48 | 0.0 | 0.0 | 0.00 | 0.01 | 0.00 | 66 | 1010.4 | |
| 20260904122519 | 48 | 0.0 | 0.0 | 0.00 | 0.01 | 0.00 | 66 | 1010.2 | |
| 20260904121519 | 48 | 0.0 | 0.0 | 0.00 | 0.01 | 0.00 | 66 | 1010.1 | |
| 20260904120520 | 48 | 0.0 | 0.0 | 0.00 | 0.01 | 0.00 | 67 | 1010.2 | |
| 20260904115520 | 48 | 0.0 | 0.0 | 0.00 | 0.01 | 0.00 | 66 | 1010.2 | |
| 20260904114519 | 48 | 0.0 | 0.0 | 0.00 | 0.01 | 0.00 | 66 | 1010.1 | |
| 20260904113519 | 48 | 0.0 | 0.0 | 0.00 | 0.01 | 0.00 | 66 | 1010.1 | |
| 20260904112519 | 49 | 0.0 | 0.0 | 0.00 | 0.01 | 0.00 | 66 | 1010.0 | |
| 20260904111519 | 49 | 0.0 | 0.0 | 0.00 | 0.01 | 0.00 | 66 | 1009.8 | |
| 20260904110520 | 49 | 0.0 | 0.0 | 0.00 | 0.01 | 0.00 | 67 | 1009.7 | |
| 20260904105539 | 49 | 0.0 | 0.0 | 0.00 | 0.01 | 0.00 | 67 | 1009.6 | |
| 20260904104519 | 49 | 0.0 | 0.0 | 0.00 | 0.01 | 0.00 | 67 | 1009.4 | |
| 20260904103519 | 49 | 0.0 | 1.0 | 0.00 | 0.01 | 0.00 | 67 | 1009.5 | |
| 20260904102519 | 49 | 0.0 | 0.0 | 0.00 | 0.01 | 0.00 | 67 | 1009.5 | |
| 20260904101520 | 50 | 0.0 | 0.0 | 0.00 | 0.01 | 0.00 | 67 | 1009.5 | |
| 20260904100520 | 50 | 0.0 | 0.0 | 0.00 | 0.01 | 0.00 | 67 | 1009.2 | |
| 20260904095539 | 50 | 0.0 | 0.0 | 0.00 | 0.01 | 0.00 | 66 | 1009.0 | |
| 20260904094519 | 51 | 0.0 | 0.0 | 0.00 | 0.01 | 0.00 | 66 | 1009.0 | |
| 20260904093519 | 51 | 0.0 | 0.0 | 0.00 | 0.01 | 0.00 | 66 | 1009.0 | |
| 20260904092519 | 51 | 0.0 | 0.0 | 0.00 | 0.01 | 0.00 | 66 | 1008.9 | |
| 20260904091520 | 51 | 0.0 | 0.0 | 0.00 | 0.01 | 0.00 | 66 | 1008.9 | |
| 20260904090519 | 51 | 0.0 | 0.0 | 0.00 | 0.01 | 0.00 | 67 | 1008.9 | |
| 20260904085519 | 51 | 0.0 | 0.0 | 0.00 | 0.01 | 0.00 | 66 | 1008.9 | |
| 20260904084519 | 51 | 0.0 | 0.0 | 0.00 | 0.01 | 0.00 | 65 | 1008.8 | |
| 20260904083519 | 51 | 90 | 2.0 | 6.0 | 0.00 | 0.01 | 0.00 | 65 | 1008.6 |
| 20260904082519 | 52 | 0.0 | 0.0 | 0.00 | 0.01 | 0.00 | 65 | 1008.6 | |
| 20260904081519 | 52 | 0.0 | 0.0 | 0.00 | 0.01 | 0.00 | 65 | 1008.7 | |
| 20260904080519 | 52 | 0.0 | 0.0 | 0.00 | 0.01 | 0.00 | 64 | 1008.8 | |
| 20260904075539 | 53 | 0.0 | 0.0 | 0.00 | 0.01 | 0.00 | 64 | 1008.9 | |
| 20260904074559 | 53 | 0.0 | 0.0 | 0.00 | 0.01 | 0.00 | 63 | 1008.8 | |
| 20260904073539 | 53 | 0.0 | 0.0 | 0.00 | 0.01 | 0.00 | 62 | 1008.8 | |
| 20260904072559 | 54 | 0.0 | 0.0 | 0.00 | 0.02 | 0.00 | 62 | 1008.8 | |
| 20260904071519 | 54 | 0.0 | 0.0 | 0.00 | 0.02 | 0.00 | 61 | 1008.8 | |
| 20260904070519 | 55 | 0.0 | 0.0 | 0.00 | 0.03 | 0.00 | 60 | 1009.0 | |
| 20260904065519 | 56 | 0.0 | 0.0 | 0.00 | 0.03 | 0.03 | 59 | 1008.8 | |
| 20260904064539 | 56 | 90 | 2.0 | 4.0 | 0.00 | 0.04 | 0.03 | 57 | 1008.8 |
| 20260904063519 | 56 | 90 | 1.0 | 3.0 | 0.00 | 0.04 | 0.03 | 55 | 1008.7 |
| 20260904062519 | 57 | 0.0 | 1.0 | 0.00 | 0.04 | 0.03 | 54 | 1008.6 | |
| 20260904061519 | 58 | 90 | 1.0 | 3.0 | 0.00 | 0.04 | 0.03 | 52 | 1008.6 |
| 20260904060519 | 58 | 90 | 2.0 | 6.0 | 0.00 | 0.04 | 0.03 | 50 | 1008.5 |
| 20260904055538 | 58 | 0.0 | 0.0 | 0.00 | 0.04 | 0.03 | 50 | 1008.4 | |
| 20260904054519 | 58 | 0.0 | 1.0 | 0.00 | 0.04 | 0.03 | 49 | 1008.4 | |
| 20260904053518 | 58 | 158 | 1.0 | 3.0 | 0.00 | 0.04 | 0.03 | 49 | 1008.4 |
| 20260904052519 | 59 | 158 | 2.0 | 4.0 | 0.00 | 0.04 | 0.03 | 51 | 1008.4 |
| 20260904051519 | 59 | 135 | 2.0 | 8.0 | 0.00 | 0.05 | 0.03 | 49 | 1008.2 |
| 20260904050519 | 59 | 135 | 5.0 | 11.0 | 0.00 | 0.05 | 0.03 | 50 | 1008.1 |
| 20260904045519 | 60 | 135 | 4.0 | 11.0 | 0.00 | 0.05 | 0.03 | 53 | 1007.9 |
| 20260904044518 | 60 | 135 | 3.0 | 8.0 | 0.00 | 0.06 | 0.03 | 51 | 1007.9 |
| 20260904043518 | 59 | 135 | 1.0 | 4.0 | 0.00 | 0.07 | 0.03 | 49 | 1007.8 |
| 20260904042519 | 59 | 0.0 | 0.0 | 0.00 | 0.08 | 0.03 | 50 | 1007.6 | |
| 20260904041559 | 59 | 135 | 1.0 | 2.0 | 0.00 | 0.09 | 0.03 | 50 | 1007.4 |
| 20260904040519 | 60 | 0.0 | 0.0 | 0.00 | 0.10 | 0.03 | 53 | 1007.5 | |
| 20260904035519 | 62 | 0.0 | 0.0 | 0.00 | 0.11 | 0.03 | 50 | 1007.6 | |
| 20260904034519 | 62 | 0.0 | 2.0 | 0.00 | 0.12 | 0.03 | 42 | 1007.5 | |
| 20260904033518 | 62 | 158 | 2.0 | 4.0 | 0.00 | 0.12 | 0.03 | 42 | 1007.4 |
| 20260904032519 | 61 | 135 | 2.0 | 5.0 | 0.00 | 0.13 | 0.03 | 45 | 1007.3 |
| 20260904031519 | 60 | 113 | 1.0 | 4.0 | 0.00 | 0.14 | 0.03 | 49 | 1007.3 |
| 20260904030541 | 61 | 90 | 2.0 | 4.0 | 0.00 | 0.14 | 0.03 | 56 | 1007.2 |
| 20260904025519 | 61 | 90 | 2.0 | 4.0 | 0.00 | 0.14 | 0.03 | 55 | 1007.2 |
| 20260904024559 | 62 | 90 | 2.0 | 4.0 | 0.00 | 0.15 | 0.03 | 51 | 1006.9 |